GFSWCAN_prec_cloud_252.txt.gz
Cloud_Cover
100 100 100 100 100 100 100 100 100 100 100 100 100 100 100 100 100 100 100 100 100 96 100 100 100 61 15 19 5 4 5 3 1 17 5 5 5 5 4 10 42 46 65 5 6 83 93 85 6 50 70 80 97 96
100 100 100 100 100 100 100 100 100 100 100 100 100 100 100 100 100 100 100 100 100 100 99 96 100 6 5 7 6 4 3 2 5 5 15 31 8 5 5 68 32 21 6 9 31 99 100 100 100 100 100 100 100 100
100 100 100 100 100 100 100 100 100 100 100 100 100 100 100 100 100 100 100 100 100 99 5 12 29 5 5 6 5 3 5 4 5 5 7 40 2 53 54 25 58 32 8 5 17 16 100 96 99 100 100 100 100 100
100 100 100 100 100 100 100 100 100 100 100 100 100 100 100 100 100 100 100 100 100 94 94 99 41 5 5 5 4 4 0 5 5 5 48 52 5 72 77 56 90 22 5 59 27 59 100 82 98 92 100 100 100 100
100 100 100 100 100 100 100 100 100 100 100 100 100 100 100 100 100 100 49 55 100 94 94 76 5 5 5 5 5 5 5 26 6 26 27 6 66 61 91 86 76 34 26 91 63 54 100 90 100 100 99 100 80 100
100 100 100 100 100 100 100 100 100 100 100 100 100 100 100 100 100 100 39 100 100 95 84 48 5 5 5 3 5 5 5 5 6 67 85 34 5 7 67 57 36 6 19 100 85 83 97 76 98 94 76 37 100 100
100 100 100 100 100 100 100 100 100 100 100 100 100 100 100 100 100 80 77 100 51 72 6 22 19 5 8 5 5 5 31 7 44 72 94 20 5 34 9 85 66 5 8 78 91 53 98 82 96 93 77 100 96 99
100 100 100 100 100 100 100 100 100 100 100 100 100 100 100 100 100 100 100 100 23 9 19 45 19 8 15 52 5 5 41 58 81 90 92 75 66 38 43 44 5 5 37 95 94 100 90 26 93 70 69 80 69 64
100 100 100 100 100 100 100 100 100 100 100 100 100 100 100 100 100 100 99 13 5 8 14 44 53 19 34 21 15 16 6 91 86 100 100 83 90 99 74 5 6 86 90 99 100 66 6 5 82 88 96 100 97 97
100 100 100 100 100 100 100 100 100 100 100 100 100 100 100 100 100 100 100 32 26 10 16 75 65 100 6 6 29 5 29 89 99 95 96 94 100 100 79 54 70 93 88 98 89 100 86 83 86 100 99 100 100 100
100 100 100 100 100 100 100 100 100 100 100 100 100 100 100 100 100 100 83 45 70 62 55 100 87 90 63 9 72 93 71 81 80 80 98 100 100 100 99 98 58 84 92 85 90 100 100 100 100 100 100 100 100 99
100 100 100 100 100 100 100 100 100 100 100 100 100 100 100 100 100 100 96 97 65 69 78 56 77 44 35 32 68 66 60 52 78 85 95 100 100 100 95 88 76 80 82 78 75 82 97 97 99 100 100 100 100 100
100 100 100 100 100 100 100 100 100 100 100 100 100 100 100 100 100 100 100 100 54 100 90 66 40 48 24 58 78 63 26 77 51 100 99 100 100 100 100 97 100 89 71 74 72 88 99 85 95 99 100 100 100 95
100 100 100 100 100 100 100 100 100 100 100 100 100 100 100 100 100 85 100 100 100 99 79 88 83 54 74 55 100 20 80 66 98 100 100 100 100 100 100 100 97 91 84 86 100 100 100 100 86 78 87 75 100 97
100 100 100 100 100 100 100 100 100 100 100 100 100 100 100 100 100 100 100 100 92 95 67 93 83 35 89 18 78 65 25 98 91 99 84 100 100 100 100 100 100 100 100 99 100 100 100 100 100 100 99 54 75 81
100 100 100 100 100 100 100 100 100 100 100 100 100 100 100 100 100 100 100 100 89 99 79 57 88 5 94 79 32 90 91 83 81 86 78 100 100 100 100 100 100 100 100 100 100 100 100 100 100 100 99 68 19 78
100 100 100 100 100 100 100 100 100 100 100 100 100 100 100 100 100 100 96 94 95 66 98 58 32 47 87 38 36 84 44 37 65 85 85 100 100 100 100 100 100 100 100 100 100 100 100 100 100 100 100 62 69 23
100 100 100 100 100 100 100 100 100 100 100 100 100 100 100 100 99 99 100 100 47 89 81 20 34 94 90 84 6 5 86 73 72 92 91 84 100 89 99 100 100 100 100 100 100 100 100 100 100 100 100 100 84 56
100 100 100 100 100 100 100 100 100 100 100 100 100 100 100 97 96 68 75 92 83 58 19 75 54 88 20 5 5 60 97 99 87 64 63 26 56 84 78 96 100 100 100 100 100 100 100 100 100 100 100 100 95 80
100 100 100 100 100 100 100 100 100 100 100 100 100 92 93 92 100 95 89 48 84 84 49 98 14 5 5 5 34 39 64 92 99 92 30 54 59 63 66 68 75 99 100 100 100 100 100 100 100 100 100 100 100 97
100 100 100 100 100 100 100 100 100 100 100 100 100 94 99 94 98 100 100 38 82 95 81 10 5 5 6 36 89 91 100 100 94 70 69 84 72 86 83 75 75 64 78 82 85 97 89 82 84 100 100 74 98 82
100 100 100 100 100 100 100 100 100 100 100 100 100 99 100 95 100 98 85 89 95 6 5 25 17 32 54 28 11 25 10 26 13 87 88 96 84 88 86 88 80 81 68 72 73 75 78 94 99 96 58 88 64 68
100 100 100 100 100 100 100 100 100 100 100 98 98 74 51 90 83 90 62 8 5 5 12 20 7 25 5 5 45 29 40 58 78 53 28 54 86 93 84 80 74 81 80 67 73 69 84 96 76 96 69 72 74 76
100 100 100 100 100 100 100 100 100 100 100 30 5 50 100 100 89 88 4 5 5 49 71 23 54 28 40 41 87 50 9 8 13 22 45 82 94 76 94 97 90 84 79 78 75 85 100 100 97 78 74 70 98 77
100 100 100 100 100 100 100 100 100 97 37 58 27 96 100 95 9 91 5 5 8 62 41 50 58 23 5 18 59 21 9 42 68 78 54 74 82 84 94 98 100 100 94 93 80 82 87 100 95 81 68 74 100 95
100 100 100 100 100 100 100 100 100 99 65 55 98 100 95 49 8 5 5 5 5 26 22 8 5 58 54 7 57 48 5 53 79 100 62 69 83 96 85 100 100 99 100 100 93 78 78 87 100 99 100 90 96 91
100 100 100 100 95 76 78 81 100 100 100 99 97 92 26 5 5 5 5 27 8 23 51 56 12 5 5 10 53 62 74 80 60 64 80 86 89 94 96 92 100 100 100 100 100 96 80 82 80 100 100 100 91 89
100 100 100 83 96 92 100 100 100 100 100 93 51 21 5 5 5 3 5 9 54 68 55 60 59 60 56 60 70 68 61 99 68 30 29 18 61 82 94 84 100 100 100 100 100 100 95 87 91 100 100 100 100 96
100 100 100 100 100 100 100 100 100 99 54 9 5 5 5 5 6 5 21 29 66 5 5 30 5 79 12 32 52 77 100 90 56 82 82 25 68 84 84 84 95 100 100 100 100 100 98 100 100 99 100 100 100 100
99 100 100 100 100 100 100 100 77 82 64 48 48 24 9 8 15 67 53 48 45 29 17 42 77 42 29 56 70 37 86 100 100 88 97 81 47 66 83 87 94 100 100 100 100 100 100 92 92 97 99 100 100 100
100 100 100 100 100 100 98 97 73 53 42 27 81 60 21 36 5 5 22 8 71 98 86 78 77 74 41 72 70 63 31 82 98 91 94 85 87 93 75 74 86 98 100 100 100 100 100 100 96 87 86 100 100 100
100 100 100 100 99 97 56 58 90 47 61 24 6 63 6 5 8 5 45 41 67 52 82 80 45 19 6 5 5 26 88 82 100 95 98 87 63 65 68 81 83 83 88 100 100 100 100 100 100 78 86 100 100 100
98 84 100 91 62 66 65 25 63 42 22 59 28 50 16 24 13 5 7 37 6 5 5 21 5 19 28 13 27 78 93 73 98 95 100 100 100 100 100 94 89 90 90 96 100 94 100 100 96 84 80 89 100 100

GFSWCAN_prec_cloud_258.txt.gz
Cloud_Cover
100 100 100 100 100 100 100 100 100 100 100 100 100 100 100 100 100 100 100 100 100 100 100 100 100 100 100 100 100 100 100 89 5 20 5 6 5 8 5 4 5 5 5 5 5 53 52 8 9 94 84 100 88 100
100 100 100 100 100 100 100 100 100 100 100 100 100 100 100 100 100 100 100 100 100 100 100 100 100 100 100 100 100 65 45 5 5 19 31 53 11 15 5 5 5 43 5 14 5 5 5 57 85 97 81 88 96 100
100 100 100 100 100 100 100 100 100 100 100 100 100 100 100 100 100 100 100 100 100 100 100 100 100 100 100 100 100 99 7 5 8 5 5 42 1 32 28 25 33 5 10 12 5 5 5 58 84 89 99 100 81 55
100 100 100 100 100 100 100 100 100 100 100 100 100 100 100 100 100 100 100 100 100 100 100 100 100 100 100 100 100 70 26 5 5 5 35 50 13 77 83 19 81 73 50 25 7 5 9 37 93 70 88 96 9 15
100 100 100 100 100 100 100 100 100 100 100 100 100 100 100 100 100 100 100 100 100 100 100 100 100 100 100 100 85 31 5 9 52 5 18 37 85 76 90 88 85 40 95 47 10 24 100 22 52 92 96 44 56 100
100 100 100 100 100 100 100 100 100 100 100 100 100 100 100 100 100 100 100 100 100 100 100 100 100 100 100 100 90 9 7 5 20 24 88 89 67 39 70 82 5 50 24 57 62 88 97 16 10 80 62 90 81 87
100 100 100 100 100 100 100 100 100 100 100 100 100 100 100 100 100 100 100 100 100 100 100 100 100 100 100 100 84 34 54 66 53 75 93 62 79 51 33 69 20 5 5 7 52 94 30 36 86 10 62 39 25 27
100 100 100 100 100 100 100 100 100 100 100 100 100 100 100 100 100 100 100 100 100 100 100 100 100 100 94 10 48 95 14 74 90 100 93 75 49 20 20 24 5 5 5 23 69 96 100 96 70 62 46 6 39 42
100 100 100 100 100 100 100 100 100 100 100 100 100 100 100 100 100 100 100 100 100 100 100 100 100 100 22 11 77 49 6 70 74 100 96 73 49 36 63 5 5 7 88 86 50 31 60 82 51 77 55 8 95 86
100 100 100 100 100 100 100 100 100 100 100 100 100 100 100 100 100 100 100 100 100 100 100 100 100 100 91 100 92 53 16 90 99 91 70 70 58 21 31 5 5 5 72 99 100 45 94 98 70 98 90 84 99 100
100 100 100 100 100 100 100 100 100 100 100 100 100 100 100 100 100 100 100 100 100 100 100 100 100 100 100 99 97 94 59 76 77 71 65 76 63 33 5 5 26 39 73 64 97 98 95 99 100 100 99 93 98 94
100 100 100 100 100 100 100 100 100 100 100 100 100 100 100 100 100 100 100 100 100 100 100 100 100 98 100 100 15 36 50 53 25 62 86 61 51 5 5 5 5 41 53 56 68 93 100 95 97 100 100 88 88 85
100 100 100 100 100 100 100 100 100 100 100 100 100 100 100 100 100 100 100 100 100 100 100 84 98 100 86 50 33 30 11 69 48 74 36 10 14 5 5 31 16 83 84 98 96 95 100 100 100 100 100 91 85 77
100 100 100 100 100 100 100 100 100 100 100 100 100 100 100 100 100 100 100 100 100 100 100 96 100 99 92 74 100 5 68 70 58 64 18 21 6 5 15 25 72 45 63 90 100 100 100 100 100 100 100 100 100 86
100 100 100 100 100 100 100 100 100 100 100 100 100 100 100 100 100 100 100 100 100 100 100 100 100 69 46 57 70 50 20 70 31 5 5 36 5 54 33 43 53 34 98 98 100 100 100 100 100 100 100 100 100 100
100 100 100 100 100 100 100 100 100 100 100 100 100 100 100 100 100 100 100 100 100 100 100 100 99 10 94 73 29 76 17 33 5 48 7 71 64 53 54 31 51 50 58 98 100 100 100 100 100 100 100 100 100 100
100 100 100 100 100 100 100 100 100 100 100 100 100 100 100 100 100 100 100 100 100 100 100 100 39 46 59 62 67 58 42 5 5 8 60 62 67 53 6 24 47 53 61 59 82 100 100 100 100 100 100 100 100 99
100 100 100 100 100 100 100 100 100 100 100 100 100 100 100 100 100 100 100 100 100 100 100 88 29 64 34 5 5 5 21 16 46 63 66 71 78 90 69 44 31 41 56 59 54 86 100 100 100 100 100 100 100 100
100 100 100 100 100 100 100 100 100 100 100 100 100 100 100 100 100 100 100 100 100 99 58 53 18 23 5 5 5 5 27 69 63 45 64 57 81 96 44 8 6 59 58 47 45 57 61 98 100 100 100 100 100 100
100 100 100 100 100 100 100 100 100 100 100 100 100 100 100 100 100 100 100 100 88 54 31 85 6 5 5 5 5 5 6 17 80 91 45 6 56 60 13 6 62 68 61 52 58 58 63 60 82 100 100 100 100 100
100 100 100 100 100 100 100 100 100 100 100 100 100 100 100 100 99 100 100 95 93 96 80 5 5 5 5 5 18 8 74 72 83 11 5 70 5 56 64 70 73 80 79 42 56 76 65 60 68 78 100 100 100 100
100 100 100 100 100 100 100 100 100 100 100 100 100 100 100 97 100 99 94 100 97 7 19 5 5 5 5 13 9 75 13 15 7 40 85 93 98 85 83 69 91 82 75 69 63 72 74 79 70 98 98 100 100 100
100 100 100 100 100 100 100 100 100 100 100 100 100 100 100 89 88 97 77 98 5 5 5 5 5 7 5 23 31 40 5 5 5 31 10 34 30 62 83 77 80 97 86 73 70 81 86 84 84 96 78 92 100 100
100 100 100 100 100 100 100 100 100 100 100 100 100 99 100 96 92 95 61 5 5 18 46 19 61 66 56 32 68 33 12 32 13 5 8 64 99 34 61 53 60 69 77 78 68 74 85 89 88 84 68 71 94 100
100 100 100 100 100 100 100 100 100 100 100 100 100 100 100 100 90 72 5 5 5 5 40 60 70 60 5 8 40 7 10 40 63 66 37 64 47 77 80 72 36 14 72 88 76 77 84 89 90 90 82 71 78 100
100 100 100 100 100 100 100 100 100 100 100 100 100 98 98 44 8 7 5 5 5 5 28 30 39 64 58 5 24 40 5 53 66 87 55 62 80 94 93 90 79 65 81 76 79 84 88 94 86 89 97 93 97 94
100 100 100 100 100 100 100 100 100 100 94 98 99 100 24 41 6 5 5 5 5 5 35 40 12 5 5 26 57 63 72 83 47 29 64 86 90 96 100 98 88 74 78 73 73 76 91 100 92 85 96 100 83 100
100 100 100 100 100 100 100 98 90 98 100 88 9 99 59 5 5 5 5 24 51 93 82 92 69 56 33 67 67 78 94 99 88 58 58 65 94 90 88 94 83 100 100 86 77 84 93 100 93 80 88 91 93 92
100 100 100 100 100 100 100 99 99 99 34 50 99 72 39 5 5 5 47 42 80 60 54 45 30 92 82 79 82 93 100 49 5 51 52 39 54 75 84 79 81 75 78 89 95 100 96 96 100 90 85 92 94 96
100 100 100 100 100 92 100 96 98 99 98 95 68 69 38 8 15 70 59 70 67 41 10 13 48 58 42 49 34 54 75 100 32 5 53 49 18 28 92 94 76 70 76 78 85 91 98 100 100 99 88 81 92 100
100 100 93 97 100 100 100 100 94 100 74 96 92 35 11 47 19 37 44 68 78 93 90 91 99 81 58 99 58 64 26 36 100 97 85 61 98 100 77 57 67 77 76 76 80 92 100 100 100 100 96 86 83 95
87 78 53 80 90 95 88 100 98 76 100 89 34 49 47 57 44 5 12 63 85 60 86 85 27 23 32 5 5 33 78 58 100 100 100 97 96 52 77 86 94 90 97 81 84 90 91 94 100 100 100 82 77 86
86 68 74 94 100 100 98 53 87 94 75 58 44 93 100 63 8 5 7 49 14 5 5 43 5 20 7 5 54 85 94 82 98 99 100 100 100 100 100 87 90 91 82 84 92 92 89 93 95 100 100 96 90 89

GFSWCAN_prec_cloud_264.txt.gz
Cloud_Cover
100 100 100 100 100 100 100 100 100 100 100 100 100 100 100 100 100 100 100 100 100 100 100 100 100 100 100 100 100 100 100 99 84 100 92 94 100 89 90 27 51 17 5 5 4 13 19 5 7 19 63 78 100 100
100 100 100 100 100 100 100 100 100 100 100 100 100 100 100 100 100 100 100 100 100 100 100 100 100 100 100 100 100 100 100 97 100 100 87 100 97 96 34 22 24 47 4 4 4 10 32 8 5 32 100 100 100 100
100 100 100 100 100 100 100 100 100 100 100 100 100 100 100 100 100 100 100 100 100 100 100 100 100 100 100 100 100 100 96 100 100 100 100 100 100 91 74 56 7 5 5 38 5 5 5 5 14 32 68 100 100 100
100 100 100 100 100 100 100 100 100 100 100 100 100 100 100 100 100 100 100 100 100 100 100 100 100 100 100 100 100 100 100 100 100 100 100 100 100 91 51 56 24 16 8 21 5 41 5 5 58 90 98 100 100 99
100 100 100 100 100 100 100 100 100 100 100 100 100 100 100 100 100 100 100 100 100 100 100 100 100 100 100 100 100 100 100 100 100 100 100 100 83 61 80 73 100 8 6 5 16 5 11 19 78 99 100 100 100 100
100 100 100 100 100 100 100 100 100 100 100 100 100 100 100 100 100 100 100 100 100 100 100 100 100 100 100 100 100 100 100 100 100 100 100 96 74 50 42 6 5 5 5 5 5 7 91 94 74 75 100 100 100 100
100 100 100 100 100 100 100 100 100 100 100 100 100 100 100 100 100 100 100 100 100 100 100 100 100 100 100 100 100 100 100 100 100 100 91 83 94 25 34 63 5 5 5 5 16 87 18 6 100 100 100 100 100 97
100 100 100 100 100 100 100 100 100 100 100 100 100 100 100 100 100 100 100 100 100 100 100 100 100 100 100 100 100 100 100 100 100 99 98 90 46 24 69 5 5 5 5 5 5 100 100 100 100 100 100 100 100 100
92 100 100 100 100 100 100 100 100 100 100 100 100 100 100 100 100 100 100 100 100 100 100 100 100 100 100 100 100 100 100 100 100 100 100 99 100 65 5 5 5 5 5 5 35 19 18 88 96 99 100 94 100 100
84 100 100 100 100 100 100 100 100 100 100 100 100 100 100 100 100 100 100 100 100 100 100 100 100 100 100 100 100 100 100 92 99 100 89 100 76 5 5 5 5 5 5 57 83 40 27 63 94 100 100 100 100 100
100 30 100 100 100 100 100 100 100 100 100 100 100 100 100 100 100 100 100 100 100 100 100 100 100 100 100 100 100 100 98 81 100 92 87 92 74 7 5 5 5 5 5 48 61 50 98 100 100 100 100 100 100 100
100 95 100 100 100 100 100 100 100 100 100 100 100 100 100 100 100 100 100 100 100 100 100 100 100 100 100 100 100 100 100 100 100 71 97 96 9 4 2 5 5 5 5 7 20 11 32 93 100 100 100 100 100 100
100 100 100 100 100 100 100 100 100 100 100 100 100 100 100 100 100 100 100 100 100 100 100 100 100 100 100 100 100 100 100 100 100 99 100 25 5 4 5 5 5 5 5 5 5 46 72 89 93 100 100 100 100 100
100 100 100 100 100 100 100 100 100 100 100 100 100 100 100 100 100 100 100 100 100 100 100 100 100 100 100 100 100 100 100 94 90 100 7 5 5 5 5 5 5 5 5 5 5 9 60 66 50 86 100 100 100 100
100 100 100 100 100 100 100 100 100 100 100 100 100 100 100 100 100 100 100 100 100 100 100 100 100 100 100 100 100 100 100 99 100 67 5 5 5 5 5 5 5 5 5 5 6 21 5 5 52 56 86 100 100 100
100 100 100 100 100 100 100 100 100 100 100 100 100 100 100 100 100 100 100 100 100 100 100 100 100 100 100 100 100 100 100 100 89 5 5 5 5 5 5 5 5 5 5 5 5 46 36 13 18 61 90 100 100 100
100 100 100 100 100 100 100 100 100 100 100 100 100 100 100 100 100 100 100 100 100 100 100 100 100 100 100 100 100 100 100 100 25 5 5 5 5 5 5 5 5 5 5 6 5 11 11 5 31 97 51 97 100 100
100 100 100 100 100 100 100 100 100 100 100 100 100 100 100 100 100 100 100 100 100 100 100 100 100 100 100 100 100 100 100 31 5 5 5 5 19 50 91 85 8 5 39 62 43 30 58 54 65 81 53 49 71 100
100 100 100 100 100 100 100 100 100 100 100 100 100 100 100 100 100 100 100 100 100 100 100 100 100 100 100 100 100 100 95 25 5 5 5 5 22 22 48 72 62 26 51 68 85 71 70 66 60 84 87 100 100 94
100 100 100 100 100 100 100 100 100 100 100 100 100 100 100 100 100 100 100 100 100 100 100 100 100 100 100 100 100 100 15 5 5 5 3 5 5 8 6 9 11 21 76 98 90 97 97 72 75 51 49 100 100 94
100 100 100 100 100 100 100 100 100 100 100 100 100 100 100 100 100 100 100 100 100 100 100 100 100 100 100 99 14 5 5 5 3 0 0 0 4 5 5 5 33 93 100 92 95 67 98 85 71 79 89 90 100 100
100 100 100 100 100 100 100 100 100 100 100 100 100 100 100 100 100 100 100 100 100 100 100 100 100 99 99 20 5 5 5 5 5 5 5 5 55 74 63 48 97 96 96 95 100 100 95 95 77 90 100 96 76 60
100 100 100 100 100 100 100 100 100 100 100 100 100 100 100 100 100 100 100 100 100 100 100 98 93 46 4 5 5 5 5 5 5 5 5 5 5 5 36 53 86 100 100 46 92 98 99 92 91 100 90 91 85 78
100 100 100 100 100 100 100 100 100 100 100 100 100 100 100 100 100 100 100 100 100 99 100 44 5 5 27 38 5 5 5 5 5 5 5 5 5 5 5 5 28 74 92 97 96 99 97 98 99 100 100 100 99 100
100 100 100 100 100 100 100 100 100 100 100 100 100 100 100 100 100 100 100 99 94 78 7 27 5 5 4 4 5 3 5 5 5 5 5 5 5 8 29 45 34 5 46 100 100 100 99 98 98 100 100 100 100 99
100 100 100 100 100 100 100 100 100 100 100 100 100 100 100 100 100 100 75 72 12 5 7 5 5 5 5 5 4 5 3 5 5 6 5 5 5 30 77 70 43 40 83 88 98 93 98 96 92 100 100 100 100 100
100 100 100 100 100 100 100 100 100 100 100 100 100 100 100 99 100 100 100 79 5 5 5 5 4 4 2 5 5 5 39 23 5 20 44 49 51 59 69 70 64 73 86 80 84 88 86 84 86 99 100 100 100 100
100 100 100 100 87 86 100 100 98 100 100 98 100 100 100 100 100 100 30 11 76 87 81 69 10 5 5 36 16 86 100 100 100 90 48 58 82 82 81 81 70 100 100 78 76 84 90 84 90 100 98 100 100 100
100 100 97 89 96 100 100 99 96 85 100 100 100 100 100 100 100 67 73 79 100 74 80 73 92 85 98 99 98 95 76 56 5 55 48 5 18 34 90 72 51 54 81 66 94 100 97 86 100 100 91 97 100 100
100 100 100 99 100 99 98 100 97 100 100 100 100 100 100 100 100 88 79 100 98 73 35 26 48 34 65 46 73 73 81 72 7 6 37 47 5 7 62 49 80 83 81 76 76 78 94 83 90 100 100 100 100 100
100 95 100 87 100 95 96 100 100 100 100 100 100 100 100 100 93 61 80 90 89 99 80 86 100 95 81 98 43 30 35 43 64 47 62 35 49 70 65 43 63 78 87 84 83 80 81 86 89 99 100 100 100 100
100 100 96 95 100 100 100 100 100 100 100 100 100 100 100 97 63 47 26 88 100 93 98 71 16 29 42 5 5 6 86 15 46 59 79 100 90 21 5 70 82 84 100 92 82 77 74 78 79 81 81 100 100 100
98 100 100 100 100 100 100 100 100 100 100 100 100 94 83 65 59 12 61 43 7 5 5 28 5 6 21 5 5 76 82 31 98 99 99 81 99 82 100 88 84 95 98 91 74 73 72 72 72 73 75 72 87 97

GFSWCAN_prec_cloud_267.txt.gz
Cloud_Cover
100 100 100 100 100 100 100 100 100 100 100 100 100 100 100 100 100 100 100 100 100 100 100 100 100 100 100 100 100 100 100 100 100 100 100 100 100 100 100 100 100 80 42 78 91 70 99 4 10 38 26 13 100 100
100 100 100 100 100 100 100 100 100 100 100 100 100 100 100 100 100 100 100 100 100 100 100 100 100 100 100 100 100 100 100 100 100 100 89 100 100 100 100 100 100 63 6 76 15 81 38 5 5 5 74 99 100 100
100 100 100 100 100 100 100 100 100 100 100 100 100 100 100 100 100 100 100 100 100 100 100 100 100 100 100 100 100 100 100 100 98 89 100 100 100 73 100 100 100 84 5 5 5 54 5 4 2 12 74 100 100 100
100 100 100 100 100 100 100 100 100 100 100 100 100 100 100 100 100 100 100 100 100 100 100 100 100 100 100 100 100 100 100 100 100 100 100 100 79 78 100 89 36 32 22 36 31 39 5 1 44 90 100 100 100 100
96 100 100 100 100 100 100 100 100 100 100 100 100 100 100 100 100 100 100 100 100 100 100 100 100 100 100 100 100 100 100 100 100 100 100 100 92 100 100 96 13 76 27 35 97 5 5 4 46 99 100 100 100 100
100 100 100 100 100 100 100 100 100 100 100 100 100 100 100 100 100 100 98 81 100 100 100 100 100 100 100 100 100 100 100 100 100 100 100 100 96 100 100 100 88 72 6 5 3 5 5 6 67 90 100 100 100 100
99 100 100 100 100 100 100 100 100 100 100 100 100 100 100 100 100 100 92 100 100 100 100 100 100 100 100 100 100 100 100 100 100 100 100 100 100 100 100 100 58 63 5 5 5 12 8 6 91 100 100 100 100 100
100 100 100 100 100 100 100 100 100 100 100 100 100 100 100 100 100 100 100 100 100 100 100 100 100 100 100 100 100 100 100 100 100 100 100 100 100 92 100 100 66 49 5 3 5 5 56 88 99 100 100 100 100 100
100 100 100 100 100 100 100 100 100 100 100 100 100 100 100 100 100 100 100 100 100 100 100 100 100 100 100 100 100 100 100 100 100 100 100 100 100 100 100 100 15 5 4 5 5 5 28 63 95 99 100 100 100 100
100 100 100 100 100 100 100 100 100 100 100 100 100 100 100 100 100 100 100 100 100 100 100 100 100 100 100 100 100 100 100 100 100 100 100 100 100 100 100 13 44 5 5 5 5 4 12 54 68 88 100 100 100 100
100 100 100 100 100 100 100 100 100 100 100 100 100 100 100 100 100 100 100 100 100 100 100 100 100 100 100 100 100 100 100 100 100 100 100 100 100 100 96 30 15 5 5 5 5 29 76 97 100 100 100 100 100 100
100 100 100 87 100 100 100 100 100 100 100 100 100 100 100 100 100 100 100 100 100 100 100 100 100 100 100 100 100 100 100 100 100 100 100 100 100 100 17 10 5 5 5 5 5 5 13 74 94 100 100 100 100 100
100 100 100 100 100 100 100 100 100 100 100 100 100 100 100 100 100 100 100 100 100 100 100 100 100 100 100 100 100 100 100 100 100 100 100 100 100 19 7 5 5 5 5 5 5 33 76 88 100 100 100 100 100 100
100 100 100 100 100 100 100 100 100 100 100 100 100 100 100 100 100 100 100 100 100 100 100 100 100 100 100 100 100 100 100 100 100 100 100 100 73 5 5 5 5 5 5 5 5 5 12 69 31 60 56 60 97 100
100 100 100 100 100 100 100 100 100 100 100 100 100 100 100 100 100 100 100 100 100 100 100 100 100 100 100 100 100 100 100 100 100 100 100 87 5 5 5 5 5 5 5 5 5 5 5 5 6 11 5 5 59 100
100 100 100 100 100 100 100 100 100 100 100 100 100 100 100 100 100 100 100 100 100 100 100 100 100 100 100 100 100 100 100 100 100 99 20 5 5 5 5 5 5 5 5 5 6 5 5 5 15 30 17 5 5 72
100 100 100 100 100 100 100 100 100 100 100 100 100 100 100 100 100 100 100 100 100 100 100 100 100 100 100 100 100 100 100 95 15 5 5 5 5 5 5 5 40 5 5 5 5 5 5 57 52 80 84 53 18 67
100 100 100 100 100 100 100 100 100 100 100 100 100 100 100 100 100 100 100 100 100 100 100 100 100 100 100 100 100 90 50 8 23 5 5 5 5 5 25 35 29 5 5 5 5 17 80 92 95 91 71 79 88 98
100 100 100 100 100 100 100 100 100 100 100 100 100 100 100 100 100 100 100 100 100 100 100 100 100 68 66 40 70 95 96 92 30 5 5 5 5 5 5 10 36 41 8 16 81 99 100 100 97 96 100 100 100 100
100 100 100 100 100 100 100 100 100 100 100 100 100 100 100 100 100 100 100 100 100 100 97 97 100 100 100 100 99 100 100 60 5 5 3 5 5 5 5 8 5 5 20 92 100 99 100 100 100 100 90 100 100 100
100 100 100 100 100 100 100 100 100 100 100 100 100 100 100 100 100 100 100 100 100 85 82 100 100 100 100 100 100 100 76 6 5 1 0 0 0 1 5 5 5 68 100 100 100 100 100 100 100 93 97 100 100 100
100 100 100 100 100 100 100 100 100 100 100 100 100 100 100 100 100 100 100 100 100 100 100 100 100 100 100 100 90 21 5 5 0 0 2 4 5 5 5 5 98 100 100 100 100 100 100 100 100 100 100 100 100 94
100 100 100 100 100 100 100 100 100 100 100 100 100 100 100 100 100 100 100 100 100 100 96 100 100 100 99 49 49 6 4 0 0 0 0 5 5 5 5 7 67 100 100 100 100 100 100 100 98 100 100 99 99 100
100 100 100 100 100 100 100 100 100 100 100 100 100 100 100 100 100 100 100 100 100 100 100 100 99 100 66 19 13 5 1 1 2 2 2 3 5 5 5 5 5 86 100 100 100 100 100 100 100 100 100 100 100 100
100 100 100 100 100 100 100 100 100 100 100 100 98 100 100 100 100 100 100 100 100 100 100 100 97 53 5 8 5 5 5 0 1 4 2 5 5 5 7 7 22 72 87 100 100 100 100 100 100 100 100 100 83 86
100 100 100 100 100 100 100 100 100 100 100 100 100 100 100 100 100 100 100 100 100 100 100 86 15 13 5 5 5 5 4 5 5 5 5 5 5 25 65 45 62 47 62 100 100 100 100 100 99 86 100 83 93 95
100 100 100 100 100 100 100 100 100 100 100 100 100 100 100 100 100 100 100 91 100 94 90 24 12 17 5 5 5 5 5 5 25 14 5 8 5 10 75 73 46 58 93 93 100 100 100 100 96 96 93 99 99 100
100 100 100 100 100 100 100 99 97 98 100 100 100 100 100 100 100 100 99 100 100 99 24 45 66 6 5 5 5 35 95 89 84 32 17 5 5 24 22 72 22 98 100 67 75 81 92 97 100 97 88 91 90 81
100 100 100 100 76 97 100 100 100 100 100 100 100 100 100 100 100 100 100 100 98 79 100 89 71 72 85 78 69 63 75 49 5 22 5 5 5 41 70 58 5 5 42 28 97 100 94 87 100 100 88 92 99 95
94 91 88 88 88 92 96 100 100 100 100 100 100 100 100 100 100 100 100 100 100 100 92 21 45 5 22 6 52 70 55 8 5 5 5 5 5 6 10 5 5 36 64 72 72 75 94 81 91 100 94 97 100 100
94 94 79 86 96 99 100 100 100 100 100 100 100 100 100 100 100 100 100 100 100 100 6 12 47 21 5 5 5 9 26 42 25 5 6 5 5 5 5 34 13 66 77 80 75 76 75 77 76 79 90 94 99 100
100 100 100 100 100 100 100 100 100 100 100 100 100 100 100 100 100 100 100 98 95 53 46 7 5 5 5 5 5 6 18 10 5 5 73 67 6 5 5 28 56 68 91 96 88 83 79 82 79 78 74 72 76 79
94 100 100 100 100 100 100 100 100 100 100 100 100 100 100 100 100 100 100 100 67 36 36 9 5 5 5 5 5 44 44 17 16 65 67 76 82 63 91 96 85 98 96 93 87 83 76 76 79 73 72 81 85 90